N172LF KSAN-

Flight info

Callsign N172LF
Flight time N/A
Altitude
Route
Aircraft BE58/L-VGD/C

Departure

Time 2026-05-07 05:40
Airport San Diego International Airport (KSAN)

Arrival

Time N/A
Airport -
Time Latitude Longitude Altitude Speed Heading
2026-05-07 05:23 32.73256 -117.19393 18 ft 0 kts 196°
2026-05-07 05:31 32.73249 -117.19368 18 ft 8 kts 73°
2026-05-07 05:31 32.73278 -117.19298 18 ft 11 kts 105°
2026-05-07 05:32 32.73251 -117.19206 20 ft 11 kts 109°
2026-05-07 05:32 32.73231 -117.19125 20 ft 10 kts 104°
2026-05-07 05:32 32.73207 -117.19025 20 ft 16 kts 106°
2026-05-07 05:32 32.73178 -117.18910 21 ft 13 kts 107°
2026-05-07 05:33 32.73168 -117.18830 23 ft 7 kts 103°
2026-05-07 05:33 32.73163 -117.18763 29 ft 10 kts 73°
2026-05-07 05:33 32.73179 -117.18726 23 ft 0 kts 21°
2026-05-07 05:33 32.73217 -117.18707 26 ft 4 kts 33°
2026-05-07 05:34 32.73218 -117.18706 26 ft 0 kts 32°
2026-05-07 05:34 32.73234 -117.18696 25 ft 8 kts 32°
2026-05-07 05:34 32.73239 -117.18663 25 ft 0 kts 110°
2026-05-07 05:34 32.73208 -117.18608 24 ft 21 kts 122°
2026-05-07 05:35 32.73158 -117.18513 23 ft 9 kts 130°
2026-05-07 05:35 32.73133 -117.18471 23 ft 10 kts 104°
2026-05-07 05:35 32.73105 -117.18353 23 ft 16 kts 107°
2026-05-07 05:35 32.73075 -117.18229 22 ft 16 kts 107°
2026-05-07 05:36 32.73064 -117.18127 20 ft 6 kts 51°
2026-05-07 05:36 32.73068 -117.18122 20 ft 0 kts 41°
2026-05-07 05:38 32.73104 -117.18110 20 ft 7 kts
2026-05-07 05:39 32.73148 -117.18149 21 ft 9 kts 316°
2026-05-07 05:39 32.73159 -117.18162 22 ft 0 kts 299°
2026-05-07 05:40 32.73164 -117.18178 22 ft 16 kts 289°
2026-05-07 05:40 32.73287 -117.18687 28 ft 104 kts 287°
2026-05-07 05:40 32.73557 -117.19592 374 ft 122 kts 291°
2026-05-07 05:40 32.73938 -117.20531 806 ft 132 kts 314°
2026-05-07 05:41 32.74591 -117.21317 1234 ft 139 kts 317°
2026-05-07 05:41 32.75311 -117.22106 1599 ft 142 kts 319°
2026-05-07 05:41 32.76068 -117.22887 1884 ft 146 kts 321°
2026-05-07 05:41 32.76873 -117.23652 2104 ft 149 kts 324°
2026-05-07 05:42 32.77744 -117.24296 2268 ft 147 kts 336°
2026-05-07 05:42 32.78725 -117.24631 2324 ft 145 kts 349°
2026-05-07 05:42 32.79669 -117.24764 2592 ft 127 kts 356°
2026-05-07 05:42 32.80517 -117.24828 2829 ft 119 kts 354°
2026-05-07 05:43 32.81347 -117.24909 2987 ft 121 kts 353°
2026-05-07 05:43 32.82216 -117.25011 3006 ft 130 kts 353°
2026-05-07 05:43 32.83128 -117.25122 3019 ft 135 kts 353°
2026-05-07 05:43 32.84076 -117.25240 3017 ft 139 kts 352°
2026-05-07 05:44 32.85046 -117.25367 3012 ft 142 kts 352°
2026-05-07 05:44 32.86032 -117.25501 3015 ft 142 kts 352°
2026-05-07 05:44 32.87020 -117.25450 3012 ft 145 kts 15°
2026-05-07 05:44 32.87889 -117.24845 3066 ft 142 kts 27°
2026-05-07 05:45 32.88742 -117.24404 3327 ft 128 kts 14°
2026-05-07 05:45 32.89580 -117.24316 3568 ft 117 kts 352°
2026-05-07 05:45 32.90372 -117.24404 3809 ft 112 kts 352°
2026-05-07 05:45 32.91146 -117.24508 4065 ft 114 kts 352°
2026-05-07 05:46 32.91947 -117.24627 4338 ft 118 kts 352°
2026-05-07 05:46 32.92768 -117.24756 4616 ft 120 kts 352°
2026-05-07 05:46 32.93594 -117.24888 4892 ft 120 kts 352°
2026-05-07 05:46 32.94419 -117.25021 5158 ft 120 kts 353°
2026-05-07 05:47 32.95229 -117.25152 5416 ft 114 kts 353°
2026-05-07 05:47 32.95987 -117.25275 5664 ft 107 kts 354°
2026-05-07 05:47 32.96734 -117.25396 5929 ft 117 kts 354°
2026-05-07 05:47 32.97589 -117.25533 6196 ft 132 kts 354°
2026-05-07 05:48 32.98550 -117.25688 6414 ft 146 kts 354°
2026-05-07 05:48 32.99589 -117.25856 6619 ft 156 kts 354°
2026-05-07 05:48 33.00687 -117.26034 6815 ft 163 kts 354°
2026-05-07 05:48 33.01826 -117.26219 6995 ft 167 kts 354°
2026-05-07 05:49 33.02991 -117.26409 7171 ft 171 kts 355°
2026-05-07 05:49 33.04176 -117.26601 7346 ft 173 kts 355°
2026-05-07 05:49 33.04340 -117.26627 7369 ft 173 kts 355°
2026-05-07 05:49 33.05317 -117.26785 7516 ft 175 kts 355°
2026-05-07 05:50 33.06529 -117.26985 7687 ft 177 kts 355°
2026-05-07 05:50 33.07750 -117.27185 7859 ft 178 kts 355°
2026-05-07 05:50 33.08978 -117.27385 8035 ft 178 kts 355°
2026-05-07 05:50 33.10208 -117.27586 8202 ft 178 kts 355°
2026-05-07 05:51 33.11437 -117.27785 8376 ft 178 kts 355°
2026-05-07 05:51 33.12666 -117.27984 8549 ft 178 kts 355°
2026-05-07 05:51 33.13897 -117.28184 8725 ft 179 kts 355°
2026-05-07 05:51 33.15131 -117.28385 8900 ft 179 kts 356°
2026-05-07 05:52 33.16366 -117.28585 9079 ft 179 kts 356°
2026-05-07 05:52 33.17596 -117.28802 9208 ft 180 kts 351°
2026-05-07 05:52 33.18718 -117.29381 8968 ft 170 kts 337°
2026-05-07 05:52 33.19733 -117.30061 8452 ft 171 kts 331°
2026-05-07 05:53 33.20389 -117.30623 8048 ft 176 kts 327°
2026-05-07 05:53 33.21355 -117.31464 7564 ft 164 kts 329°
2026-05-07 05:53 33.22255 -117.32212 7092 ft 153 kts 328°
2026-05-07 05:53 33.23106 -117.32943 6650 ft 147 kts 328°
2026-05-07 05:54 33.23917 -117.33592 6327 ft 137 kts 330°
2026-05-07 05:54 33.24741 -117.34207 6136 ft 139 kts 331°
2026-05-07 05:54 33.25569 -117.34807 6264 ft 145 kts 332°
2026-05-07 05:54 33.26464 -117.35450 6418 ft 156 kts 332°
2026-05-07 05:55 33.27421 -117.36132 6584 ft 164 kts 332°
2026-05-07 05:55 33.28416 -117.36838 6741 ft 169 kts 332°
2026-05-07 05:55 33.29438 -117.37560 6894 ft 172 kts 332°
2026-05-07 05:55 33.30477 -117.38293 7046 ft 175 kts 333°
2026-05-07 05:56 33.31530 -117.39034 7203 ft 177 kts 333°
2026-05-07 05:56 33.32593 -117.39783 7347 ft 178 kts 333°
2026-05-07 05:56 33.33664 -117.40539 7491 ft 179 kts 333°
2026-05-07 05:56 33.34001 -117.40777 7537 ft 180 kts 333°